{"data":{"norad_id":62293,"epoch":"2026-05-25T01:59:00.939264Z","epoch_age_seconds":67638,"freshness":"FRESH","line1":"1 62293U 24238D   26145.08264976 -.00000056  00000+0  65531-4 0  9996","line2":"2 62293  59.9146 340.9855 0012151 359.5107   0.5887 13.75196276 72736","mean_motion":13.75196276,"eccentricity":0.0012151,"inclination_deg":59.9146,"raan_deg":340.9855,"arg_perigee_deg":359.5107,"mean_anomaly_deg":0.5887,"bstar":6.5531e-5,"rev_number":7273,"period_min":104.71232544263,"perigee_km":972.03244045573,"apogee_km":989.91655321534,"semimajor_km":7359.1114968355,"source":"CELESTRAK","updated_at":"2026-05-25T13:38:02.904612Z"}}